Observations

BIA Manual Entry


Date Temp Humidity Rainfall Dew Point Wind Direction Wind Speed Wind Pressure Condition Visibility
2025-03-06 01:00:06 26 94 0.0 25 180 4.0 1010 Thundershowers 08 KM
2025-03-05 23:58:57 27 94 0.0 26 140 3.8 1010 Thundershowers 08 KM
2025-03-05 22:59:37 27 91 0.0 26 010 2.0 1010 Night Thunderstorm 10 KM
2025-03-05 21:58:22 27 91 0.0 26 070 1.9 1010 Partly Cloudy (Night) 10 KM
2025-03-05 21:01:22 24 90 25 240 1.9 1009 Lightning 10 KM
2025-03-05 20:04:08 28 85 25 350 5.7 1008 Partly Cloudy (Night) 10 KM
2025-03-05 19:01:56 28 85 25 020 3.8 1008 Partly Cloudy (Night) 10 KM
2025-03-05 17:58:54 28 83 28 320 11.4 1007 Partly Cloudy (Day) 15 KM
2025-03-05 17:01:35 29 350 25 350 11.4 1007 Partly Cloudy (Day) 20 KM
2025-03-05 15:59:29 30 72 24 330 11.4 1006 Partly Cloudy (Day) 20 KM
2025-03-05 15:01:06 30 69 24 330 7.6 1006 Partly Cloudy (Day) 20 KM
2025-03-05 13:59:36 30 71 24 300 5.7 1007 Cloudy 20 KM
2025-03-05 13:00:14 29 77 0.0 25 320 8 1008 Cloudy 20 km
2025-03-05 12:05:49 29 74 0.0 24 240 4 1010 Cloudy 20 km
2025-03-05 11:01:07 28 81 0.0 25 120 2 1010 Cloudy 20 km
2025-03-05 10:00:22 28 85 0.0 25 170 2.0 1010 Partly Cloudy (Day) 10 KM
2025-03-05 09:00:21 26 91 0.0 25 150 3.0 1010 Shower Day 10 KM
2025-03-05 08:00:10 26 91 0.0 24 180 5.7 1010 Shower Day 10KM
2025-03-05 07:00:37 25 92 0.0 24 190 5.7 1010 Cloudy 10KM
2025-03-05 06:00:01 25 93 0.0 25 180 3.8 1009 Cloudy 10KM
2025-03-05 04:59:16 25 92 0.0 24 140 9.5 1008 Cloudy 10KM
2025-03-05 04:01:09 25 91 0.0 24 190 3.8 1008 Cloudy 10KM
2025-03-05 03:04:02 25 92 0.0 24 210 5.7 1008 Rain 10KM
2025-03-05 02:01:55 25 92 0.00 24 310 1.9 1009 Rain 10KM
2025-03-05 01:03:13 25 90 0.00 24 030 3.9 1009 Rain 10KM